Home > Weather > Kalgoorlie > Past weeks

Flag for Australia Weather for the Past 2 Weeks in Kalgoorlie, Western Australia, Australia

Now
72 °F

Sunny.


Feels Like: 76 °F
Forecast: 46 / 68 °F
Wind: 10 mph from West

Location: Kalgoorlie Boulder Amo

Current Time: May 2, 2016 at 5:09:46 PM

Latest Report: May 2, 2016 at 4:00 PM


Visibility: N/A

Pressure: 30.04 "Hg

Humidity: 25%

Dew Point: 34 °F

Location of KalgoorlieLocation

Historic Weather in Kalgoorlie — Graph

°F

Kalgoorlie Temperature Yesterday

Maximum temperature yesterday: 68 °F (at 2:00 PM)
Minimum temperature yesterday: 41 °F (at 6:00 AM)
Average temperature yesterday: 54 °F

High & Low Weather Summary for the Past Weeks

 TemperatureHumidityPressure
High90 °F (Apr 24, 2:00 PM)100% (Apr 20, 6:00 AM)30.45 "Hg (Apr 20, 6:00 AM)
Low41 °F (May 1, 6:00 AM)22% (Apr 24, 2:00 PM)29.80 "Hg (Apr 26, 2:00 PM)
Average64 °F57%30.08 "Hg
* Reported Apr 17 4:00 PM — May 2 4:00 PM, Kalgoorlie, Weather by CustomWeather, © 2016

Note: Actual official high and low records may vary slightly from our data, if they occured in-between our weather recording intervals... More about our weather records

Advertising

Kalgoorlie Weather History for the Previous 24 Hours

Scroll right to see more
 ConditionsComfort  
Time TempWeatherWind HumidityBarometerVisibility
4:00 PM
Mon, May 2
72 °FSunny.10 mph25%30.04 "HgN/A
3:00 PM72 °FSunny.10 mph25%30.04 "Hg10 mi
2:30 PM70 °FSunny.13 mph25%30.04 "Hg10 mi
2:00 PM72 °FSunny.12 mph23%30.07 "Hg10 mi
1:00 PM70 °FSunny.10 mph27%30.07 "Hg10 mi
12:30 PM68 °FSunny.10 mph28%30.09 "Hg10 mi
12:00 PM66 °FSunny.10 mph32%30.09 "Hg10 mi
11:30 AM66 °FSunny.12 mph32%30.12 "HgN/A
11:00 AM64 °FSunny.9 mph37%30.15 "Hg10 mi
10:00 AM61 °FSunny.8 mph42%30.15 "Hg10 mi
9:00 AM55 °FSunny.3 mph55%30.18 "Hg10 mi
8:30 AM54 °FSunny.6 mph58%30.18 "Hg10 mi
8:00 AM50 °FSunny.3 mph67%30.15 "Hg10 mi
7:30 AM48 °FSunny.No wind71%30.15 "Hg10 mi
7:00 AM45 °FSunny.No wind76%30.15 "Hg10 mi
6:30 AM43 °FSunny.3 mph81%30.12 "HgN/A
6:00 AM43 °FSunny.5 mph81%30.12 "HgN/A
5:30 AM43 °FSunny.No wind81%30.12 "HgN/A
5:00 AM41 °FClear.5 mph81%30.09 "HgN/A
4:00 AM45 °FClear.6 mph71%30.09 "HgN/A
3:00 AM45 °FClear.5 mph71%30.09 "HgN/A
2:30 AM46 °FClear.7 mph66%30.09 "HgN/A
2:00 AM46 °FClear.8 mph66%30.12 "HgN/A
1:30 AM48 °FClear.9 mph62%30.12 "HgN/A
1:00 AM48 °FClear.8 mph62%30.09 "HgN/A
12:30 AM48 °FClear.7 mph62%30.09 "HgN/A
12:00 AM48 °FClear.No wind66%30.12 "HgN/A
11:30 PM
Sun, May 1
48 °FClear.6 mph66%30.12 "HgN/A
11:00 PM52 °FClear.7 mph58%30.12 "HgN/A
10:30 PM50 °FClear.6 mph62%30.12 "HgN/A
10:00 PM54 °FClear.7 mph51%30.12 "HgN/A
9:30 PM54 °FClear.8 mph51%30.12 "HgN/A
9:00 PM55 °FClear.8 mph47%30.15 "HgN/A
8:30 PM55 °FClear.8 mph47%30.12 "HgN/A
8:00 PM57 °FClear.9 mph44%30.12 "HgN/A
7:00 PM59 °FClear.No wind45%30.12 "HgN/A
6:30 PM59 °FClear.No wind45%30.12 "HgN/A
6:00 PM61 °FClear.No wind45%30.09 "HgN/A
5:00 PM66 °FClear.5 mph30%30.09 "HgN/A
Weather by CustomWeather, © 2016

See weather overviewHow to use our weather pages